GW0634 Weather Reports


time (UTC)temp
C
wind
direction
speed
KPH
gust
KPH
rain 1hr
cm
rain 24hr
cm
rain mn
cm
humidity
%
barometer
mb
20260505140235 7 60 1.6 3.2 0.00 0.00 0.00 62 885.5
20260505130159 7 300 3.2 4.8 0.00 0.00 0.00 60 884.5
20260505124649 7 356 4.8 9.7 0.00 0.00 0.00 60 884.3
20260505124145 7 25 1.6 3.2 0.00 0.00 0.00 60 884.2
20260505123641 7 28 1.6 4.8 0.00 0.00 0.00 61 884.3
20260505123138 7 16 4.8 4.8 0.00 0.00 0.00 61 884.3
20260505122635 7 23 4.8 8.0 0.00 0.00 0.00 61 884.0
20260505122132 7 359 8.0 11.3 0.00 0.00 0.00 61 884.3
20260505121628 7 17 8.0 12.9 0.00 0.00 0.00 62 884.3
20260505121125 7 18 3.2 4.8 0.00 0.00 0.00 62 883.8
20260505120621 6 19 0.0 0.0 0.00 0.00 0.00 63 883.6
20260505120117 6 304 4.8 8.0 0.00 0.00 0.00 63 883.2
20260505115612 6 35 4.8 9.7 0.00 0.00 0.00 63 883.1
20260505115110 6 27 3.2 3.2 0.00 0.00 0.00 63 883.1
20260505114606 6 22 3.2 4.8 0.00 0.00 0.00 63 883.2
20260505114103 6 15 3.2 3.2 0.00 0.00 0.00 63 883.1
20260505113559 6 22 3.2 8.0 0.00 0.00 0.00 63 883.1
20260505113056 6 339 8.0 12.9 0.00 0.00 0.00 62 883.2
20260505112552 6 317 6.4 12.9 0.00 0.00 0.00 63 883.1
20260505112050 6 31 3.2 4.8 0.00 0.00 0.00 63 883.1
20260505111544 6 30 1.6 4.8 0.00 0.00 0.00 64 883.1
20260505111040 7 54 0.0 1.6 0.00 0.00 0.00 64 883.2
20260505110537 7 26 6.4 9.7 0.00 0.00 0.00 64 883.5
20260505102009 8 41 6.4 8.0 0.00 0.00 0.00 61 883.4
20260505101508 8 344 1.6 4.8 0.00 0.00 0.00 60 883.1
20260505101004 8 35 4.8 8.0 0.00 0.00 0.00 60 882.9
20260505100501 8 34 4.8 8.0 0.00 0.00 0.00 59 882.9
20260505095957 8 277 6.4 8.0 0.00 0.00 0.00 59 882.8
20260505095454 8 4 0.0 0.0 0.00 0.00 0.00 59 882.7
20260505094950 9 64 9.7 16.1 0.00 0.00 0.00 58 882.7
20260505094447 9 32 4.8 9.7 0.00 0.00 0.00 58 882.6
20260505093943 9 115 4.8 4.8 0.00 0.00 0.00 58 882.6
20260505093440 10 22 4.8 8.0 0.00 0.00 0.00 58 882.7
20260505092937 10 257 3.2 4.8 0.00 0.00 0.00 58 883.0
20260505092435 10 15 4.8 9.7 0.00 0.00 0.00 58 882.7
20260505091932 10 339 11.3 16.1 0.00 0.00 0.00 57 882.8
20260505091430 10 346 11.3 16.1 0.00 0.00 0.00 57 882.7
20260505090928 10 8 12.9 17.7 0.00 0.00 0.00 57 882.9
20260505090426 10 12 12.9 20.9 0.00 0.00 0.00 58 882.7
20260505085922 10 352 1.6 3.2 0.00 0.00 0.00 58 882.5
20260505085420 10 353 4.8 8.0 0.00 0.00 0.00 58 882.8
20260505084918 10 253 6.4 8.0 0.00 0.00 0.00 57 882.8
20260505084416 11 277 8.0 11.3 0.00 0.00 0.00 59 882.5
20260505083914 11 341 6.4 9.7 0.00 0.00 0.00 59 882.3
20260505083411 11 266 3.2 4.8 0.00 0.00 0.00 59 882.5
20260505082907 11 38 4.8 9.7 0.00 0.00 0.00 58 882.4
20260505082403 11 323 11.3 12.9 0.00 0.00 0.00 58 882.3
20260505081900 11 286 4.8 4.8 0.00 0.00 0.00 58 882.2
20260505081357 12 55 6.4 11.3 0.00 0.00 0.00 58 882.0
20260505080854 12 352 14.5 20.9 0.00 0.00 0.00 57 882.1
20260505080350 12 343 6.4 8.0 0.00 0.00 0.00 56 882.0
20260505075845 12 181 4.8 8.0 0.00 0.00 0.00 55 881.8
20260505075342 12 0 1.6 3.2 0.00 0.00 0.00 54 881.8
20260505074840 13 228 3.2 11.3 0.00 0.00 0.00 53 881.6
20260505074337 13 155 3.2 4.8 0.00 0.00 0.00 51 881.6
20260505073834 13 27 4.8 8.0 0.00 0.00 0.00 48 881.5
20260505073332 15 237 3.2 3.2 0.00 0.00 0.00 38 881.8
20260505072829 15 336 4.8 8.0 0.00 0.00 0.00 37 881.5
20260505072325 15 351 6.4 9.7 0.00 0.00 0.00 36 881.4
20260505071821 15 1 9.7 12.9 0.00 0.00 0.00 35 881.5
20260505071317 16 350 8.0 9.7 0.00 0.00 0.00 35 881.6
20260505070816 16 282 9.7 11.3 0.00 0.00 0.00 34 881.3
20260505070312 16 319 4.8 9.7 0.00 0.00 0.00 34 881.0
20260505065807 16 331 4.8 8.0 0.00 0.00 0.00 33 881.2
20260505065304 16 356 4.8 8.0 0.00 0.00 0.00 32 881.1
20260505064801 16 356 4.8 9.7 0.00 0.00 0.00 32 880.8
20260505064258 16 2 9.7 12.9 0.00 0.00 0.00 31 880.6
20260505063756 16 343 8.0 9.7 0.00 0.00 0.00 31 880.7
20260505063252 16 343 6.4 9.7 0.00 0.00 0.00 30 880.6
20260505062749 17 315 4.8 8.0 0.00 0.00 0.00 28 880.5
20260505062246 17 291 6.4 9.7 0.00 0.00 0.00 28 880.4
20260505061743 17 347 3.2 4.8 0.00 0.00 0.00 27 880.4
20260505061241 17 347 8.0 12.9 0.00 0.00 0.00 26 880.4
20260505060738 17 9 8.0 12.9 0.00 0.00 0.00 25 880.2
20260505060235 17 315 6.4 9.7 0.00 0.00 0.00 24 880.1
20260505055730 17 255 8.0 11.3 0.00 0.00 0.00 24 880.0
20260505055227 17 8 8.0 11.3 0.00 0.00 0.00 23 880.2
20260505054724 17 250 9.7 11.3 0.00 0.00 0.00 23 880.0
20260505054222 17 250 12.9 16.1 0.00 0.00 0.00 23 879.7
20260505053720 17 258 9.7 12.9 0.00 0.00 0.00 23 879.9
20260505053216 17 288 14.5 16.1 0.00 0.00 0.00 23 879.8
20260505052714 17 275 20.9 27.4 0.00 0.00 0.00 23 879.9
20260505052210 17 248 11.3 14.5 0.00 0.00 0.00 23 879.8
20260505051708 17 264 16.1 20.9 0.00 0.00 0.00 22 879.7
20260505051206 17 260 9.7 16.1 0.00 0.00 0.00 22 879.7
20260505050703 18 261 16.1 20.9 0.00 0.00 0.00 21 879.6
20260505050201 17 266 11.3 12.9 0.00 0.00 0.00 22 879.7
20260505041631 17 299 9.7 16.1 0.00 0.00 0.00 23 879.7
20260505041128 17 260 8.0 11.3 0.00 0.00 0.00 22 879.8
20260505040625 18 306 8.0 12.9 0.00 0.00 0.00 22 879.9
20260505040122 18 283 11.3 12.9 0.00 0.00 0.00 21 879.7
20260505035618 18 277 16.1 17.7 0.00 0.00 0.00 21 879.6
20260505035115 18 276 17.7 20.9 0.00 0.00 0.00 20 879.5
20260505034612 19 261 14.5 17.7 0.00 0.00 0.00 20 879.7
20260505034109 19 290 11.3 16.1 0.00 0.00 0.00 20 879.6
20260505033605 19 292 16.1 22.5 0.00 0.00 0.00 20 879.6
20260505033104 19 230 17.7 24.1 0.00 0.00 0.00 19 879.7
20260505032601 19 257 12.9 14.5 0.00 0.00 0.00 20 879.5
20260505032057 20 292 14.5 17.7 0.00 0.00 0.00 20 879.4
20260505031555 20 278 14.5 17.7 0.00 0.00 0.00 19 879.3
20260505031051 20 278 12.9 17.7 0.00 0.00 0.00 19 879.1
20260505030548 20 257 11.3 12.9 0.00 0.00 0.00 19 879.3
20260505030044 20 318 11.3 16.1 0.00 0.00 0.00 19 879.2
20260505025540 20 256 8.0 14.5 0.00 0.00 0.00 18 879.1
20260505025039 20 233 11.3 14.5 0.00 0.00 0.00 18 879.0
20260505024536 20 236 16.1 22.5 0.00 0.00 0.00 17 878.8
20260505024033 20 264 9.7 12.9 0.00 0.00 0.00 17 878.7
20260505023530 20 262 11.3 12.9 0.00 0.00 0.00 16 878.8
20260505023027 20 244 17.7 22.5 0.00 0.00 0.00 16 878.7
20260505022525 21 233 12.9 17.7 0.00 0.00 0.00 16 878.7
20260505022022 21 254 12.9 16.1 0.00 0.00 0.00 16 878.8
20260505021518 21 268 11.3 14.5 0.00 0.00 0.00 17 878.7
20260505021015 21 228 4.8 4.8 0.00 0.00 0.00 18 878.7
20260505020514 21 251 8.0 9.7 0.00 0.00 0.00 18 878.4
20260505020012 21 225 3.2 3.2 0.00 0.00 0.00 19 878.7
20260505015509 21 245 4.8 4.8 0.00 0.00 0.00 19 878.2
20260505015006 21 222 1.6 1.6 0.00 0.00 0.00 19 878.3
20260505014503 21 225 1.6 1.6 0.00 0.00 0.00 18 878.4
20260505014000 21 233 6.4 8.0 0.00 0.00 0.00 18 878.4
20260505013457 21 222 6.4 9.7 0.00 0.00 0.00 18 878.2
20260505012954 22 253 6.4 8.0 0.00 0.00 0.00 18 878.3
20260505012452 22 240 1.6 3.2 0.00 0.00 0.00 18 878.4
20260505011949 22 244 4.8 8.0 0.00 0.00 0.00 18 878.3
20260505011445 22 243 6.4 8.0 0.00 0.00 0.00 18 878.3
20260505010942 22 241 8.0 9.7 0.00 0.00 0.00 17 878.1
20260505010437 23 257 8.0 12.9 0.00 0.00 0.00 17 878.3
20260505005934 23 246 8.0 11.3 0.00 0.00 0.00 17 878.3
20260505005431 23 241 8.0 11.3 0.00 0.00 0.00 17 878.4
20260505004928 23 235 8.0 11.3 0.00 0.00 0.00 16 878.3
20260505004425 23 189 8.0 11.3 0.00 0.00 0.00 16 878.4
20260505003922 23 260 11.3 14.5 0.00 0.00 0.00 15 878.3
20260505003419 23 269 12.9 14.5 0.00 0.00 0.00 15 878.6
20260505002915 24 247 11.3 14.5 0.00 0.00 0.00 16 878.4
20260505002411 24 272 8.0 12.9 0.00 0.00 0.00 17 878.4
20260505001910 24 242 3.2 3.2 0.00 0.00 0.00 18 878.4
20260505001407 24 237 4.8 4.8 0.00 0.00 0.00 18 878.6
20260505000904 24 251 3.2 4.8 0.00 0.00 0.00 18 878.4
20260505000402 24 234 8.0 11.3 0.00 0.00 0.00 18 878.8
20260504235858 25 238 11.3 12.9 0.00 0.00 0.00 18 878.8
20260504235355 25 202 8.0 11.3 0.00 0.00 0.00 18 878.9
20260504234852 25 252 8.0 12.9 0.00 0.00 0.00 20 878.7
20260504234349 25 149 6.4 9.7 0.00 0.00 0.00 21 878.8
20260504233846 25 224 9.7 12.9 0.00 0.00 0.00 19 878.8
20260504233341 25 228 16.1 17.7 0.00 0.00 0.00 20 879.1
20260504232838 25 223 11.3 16.1 0.00 0.00 0.00 20 878.8
20260504232336 25 209 6.4 9.7 0.00 0.00 0.00 18 879.1
20260504231832 25 244 9.7 17.7 0.00 0.00 0.00 19 878.8
20260504231329 25 196 12.9 16.1 0.00 0.00 0.00 20 878.9
20260504230825 25 230 14.5 16.1 0.00 0.00 0.00 18 878.9
20260504230323 25 228 4.8 9.7 0.00 0.00 0.00 18 879.1
20260504225822 26 214 11.3 14.5 0.00 0.00 0.00 19 878.9
20260504225317 25 244 3.2 4.8 0.00 0.00 0.00 21 879.0
20260504224815 25 232 8.0 9.7 0.00 0.00 0.00 19 879.1
20260504224312 26 243 3.2 4.8 0.00 0.00 0.00 19 879.2
20260504223809 26 242 14.5 17.7 0.00 0.00 0.00 18 879.2
20260504223304 26 270 9.7 12.9 0.00 0.00 0.00 18 879.1
20260504222801 26 237 9.7 11.3 0.00 0.00 0.00 18 879.2
20260504222258 26 264 9.7 11.3 0.00 0.00 0.00 18 879.3
20260504221756 26 247 8.0 9.7 0.00 0.00 0.00 18 879.4
20260504221253 26 260 12.9 14.5 0.00 0.00 0.00 19 879.5
20260504220749 25 327 9.7 12.9 0.00 0.00 0.00 19 879.5
20260504220246 25 279 14.5 17.7 0.00 0.00 0.00 19 879.4
20260504215744 25 202 14.5 16.1 0.00 0.00 0.00 20 879.4
20260504215240 25 217 9.7 11.3 0.00 0.00 0.00 20 879.5
20260504214736 25 221 9.7 11.3 0.00 0.00 0.00 19 879.7
20260504214232 25 248 17.7 20.9 0.00 0.00 0.00 19 879.6
20260504213729 25 226 8.0 12.9 0.00 0.00 0.00 20 880.0
20260504213226 25 229 8.0 9.7 0.00 0.00 0.00 20 880.2
20260504212723 25 225 0.0 1.6 0.00 0.00 0.00 21 880.3
20260504212219 25 210 8.0 9.7 0.00 0.00 0.00 19 880.2
20260504211717 25 265 8.0 11.3 0.00 0.00 0.00 20 880.3
20260504211213 25 290 3.2 4.8 0.00 0.00 0.00 20 880.4
20260504210711 25 278 9.7 11.3 0.00 0.00 0.00 19 880.3
20260504210207 26 261 3.2 9.7 0.00 0.00 0.00 22 880.6
20260504205704 25 262 11.3 14.5 0.00 0.00 0.00 21 880.5
20260504205202 26 269 3.2 4.8 0.00 0.00 0.00 21 880.7
20260504204700 26 293 8.0 9.7 0.00 0.00 0.00 21 881.0
20260504204159 25 265 9.7 12.9 0.00 0.00 0.00 20 881.1
20260504203657 26 278 12.9 20.9 0.00 0.00 0.00 21 880.8
20260504203154 25 229 9.7 11.3 0.00 0.00 0.00 21 880.8
20260504202649 25 224 1.6 3.2 0.00 0.00 0.00 21 881.1
20260504202146 25 270 4.8 4.8 0.00 0.00 0.00 21 881.3
20260504201643 25 209 4.8 8.0 0.00 0.00 0.00 22 881.4
20260504201141 25 220 8.0 11.3 0.00 0.00 0.00 22 881.2
20260504200637 25 233 8.0 11.3 0.00 0.00 0.00 21 881.3
20260504200134 26 262 8.0 11.3 0.00 0.00 0.00 20 881.3
20260504195630 25 254 1.6 8.0 0.00 0.00 0.00 22 881.4
20260504195126 25 262 11.3 14.5 0.00 0.00 0.00 21 881.7
20260504194623 25 220 3.2 3.2 0.00 0.00 0.00 20 881.5
20260504194119 25 276 12.9 17.7 0.00 0.00 0.00 21 881.6
20260504193615 26 252 3.2 4.8 0.00 0.00 0.00 20 881.4
20260504193114 25 279 6.4 8.0 0.00 0.00 0.00 20 881.5
20260504192612 25 271 9.7 14.5 0.00 0.00 0.00 19 881.6
20260504192110 25 341 4.8 8.0 0.00 0.00 0.00 19 881.7
20260504191608 25 272 6.4 8.0 0.00 0.00 0.00 18 881.9
20260504191104 25 243 9.7 12.9 0.00 0.00 0.00 18 881.8
20260504190600 25 255 8.0 9.7 0.00 0.00 0.00 17 881.7
20260504190056 26 344 8.0 11.3 0.00 0.00 0.00 19 882.0
20260504185553 25 249 0.0 0.0 0.00 0.00 0.00 18 881.7
20260504185050 26 257 12.9 14.5 0.00 0.00 0.00 19 881.8
20260504184545 25 250 3.2 3.2 0.00 0.00 0.00 20 881.8
20260504184041 26 192 11.3 12.9 0.00 0.00 0.00 20 882.1
20260504183538 25 46 6.4 9.7 0.00 0.00 0.00 20 882.0
20260504183036 24 243 6.4 11.3 0.00 0.00 0.00 22 882.0
20260504182533 24 230 9.7 12.9 0.00 0.00 0.00 23 882.2
20260504182030 24 240 14.5 17.7 0.00 0.00 0.00 23 882.2
20260504181527 25 265 14.5 20.9 0.00 0.00 0.00 23 882.2
20260504181026 23 250 6.4 8.0 0.00 0.00 0.00 25 882.3
20260504180524 23 236 14.5 17.7 0.00 0.00 0.00 25 882.5
20260504180023 23 242 16.1 24.1 0.00 0.00 0.00 25 882.5
20260504175519 22 241 19.3 25.7 0.00 0.00 0.00 25 882.5
20260504175016 22 218 12.9 16.1 0.00 0.00 0.00 26 882.7
20260504174514 22 259 14.5 16.1 0.00 0.00 0.00 26 882.8
20260504174011 23 258 8.0 9.7 0.00 0.00 0.00 26 882.9
20260504173508 22 264 8.0 11.3 0.00 0.00 0.00 26 882.9
20260504173005 22 258 16.1 22.5 0.00 0.00 0.00 26 882.9
20260504172501 22 322 17.7 20.9 0.00 0.00 0.00 26 883.0
20260504171957 22 282 11.3 16.1 0.00 0.00 0.00 26 882.7
20260504171455 22 263 12.9 16.1 0.00 0.00 0.00 27 883.0
20260504170951 22 239 12.9 22.5 0.00 0.00 0.00 27 882.9
20260504170447 22 309 16.1 20.9 0.00 0.00 0.00 26 882.7
20260504160407 22 261 14.5 17.7 0.00 0.00 0.00 27 883.1
20260504150831 20 247 0.0 1.6 0.00 0.00 0.00 33 883.9
20260504150328 20 244 11.3 14.5 0.00 0.00 0.00 33 884.1